weather.gov     
National Weather Service

Terminal Aerodrome Forecast
NWS Homepage
This page is being discontinued on March 12, 2014.
The same data is available at this site. Please update your bookmarks.
Thank you, and we apologize for the inconvenience.
Please send an email to SR-SRH.Webmaster@noaa.gov with any concerns.


Current Version
Previous Version:    01  02  03  04  05  06  07  08  09  10  11  12  13  14  15  16  17  18  19  20  21  22  23  24  25  26  27  28  29  30  
   31  32  33  34  35  36  37  
[Printable]
482
FTUS41 KCLE 021100
TAFERI
TAF
KERI 021120Z 0212/0312 21007KT P6SM SCT035 BKN060
      TEMPO 0212/0215 BKN035
     FM021500 25012KT 6SM -RA BR BKN035
      TEMPO 0215/0219 4SM -SHRA BR BKN025
     FM021900 26014KT P6SM BKN035 OVC060
     FM022100 25011KT P6SM SCT045 BKN120
     FM030000 22006KT P6SM SCT045 BKN250
     FM030300 21004KT 6SM BR BKN250
     FM030900 21005KT 5SM BR BKN045=


U.S. Dept. of Commerce
NOAA National Weather Service
1325 East West Highway
Silver Spring, MD 20910
E-mail: w-nws.webmaster@noaa.gov
Page last modified: May 16, 2007
NATIONAL WEATHER SERVICE: for Safety, for Work, for Fun - FOR LIFE